Regional Weather Roundup
Issued by NWS

Home | Current Version | Previous Version | Graphics & Text | Print | Product List | Glossary On
Versions: 1 2 3 4 5 6 7 8 9 10 11 12 13 14 15 16 17 18 19 20 21 22 23 24 25 26 27 28 29 30 31 32 33 34 35 36 37 38 39 40 41 42 43 44 45 46 47 48 49 50
000
ASUS43 KMKX 031311
RWRWI

WISCONSIN REGIONAL WEATHER ROUNDUP
NATIONAL WEATHER SERVICE MILWAUKEE/SULLIVAN WI
800 AM CDT SUN MAY 03 2015

NOTE: "FAIR" INDICATES FEW OR NO CLOUDS BELOW 12,000 FEET WITH NO
SIGNIFICANT WEATHER AND/OR OBSTRUCTIONS TO VISIBILITY.

WIZ001-002-006>008-014>016-023>028-031400-
NORTHWEST WISCONSIN

CITY           SKY/WX    TMP DP  RH WIND       PRES   REMARKS
SUPERIOR ARPT  PTSUNNY   62  55  77 SW8       29.72R
ASHLAND        CLOUDY    63  51  65 S8        29.74S
HAYWARD        CLOUDY    61  49  64 S14       29.77F
SIREN          CLOUDY    59  50  71 SE6       29.76F
CUMBERLAND     PTSUNNY   55  48  76 SE7       29.80S
RICE LAKE      PTSUNNY   59  49  69 SE7       29.82F
CHETEK         PTSUNNY   59  51  75 CALM      29.82S
LADYSMITH      PTSUNNY   56  50  79 SE5       29.85F
EAU CLAIRE     CLOUDY    60  49  66 SE3       29.82R
MENOMONIE      CLOUDY    60  50  70 S7        29.81S
NEW RICHMOND   CLOUDY    58  49  74 SE8       29.79S
OSCEOLA        CLOUDY    58  51  75 SE10      29.78F
$$

WIZ003>005-009-010-017-018-031400-
NORTH CENTRAL WISCONSIN

CITY           SKY/WX    TMP DP  RH WIND       PRES   REMARKS
MANITOWISH WTR PTSUNNY   59  50  71 SW13G18   29.82F
ARBOR VITAE    MOSUNNY   59  51  73 SW6       29.84S
WOODRUFF       MOSUNNY   59  51  73 SW6       29.84S
RHINELANDER    SUNNY     59  49  69 SW10      29.86R
EAGLE RIVER    MOSUNNY   59  47  65 SW8       29.84S
LAND O LAKES   MOSUNNY   60  49  65 SW10G17   29.84S
PHILLIPS       CLOUDY    58  50  75 SW7       29.83S
TOMAHAWK       SUNNY     56  49  77 CALM      29.86R
MEDFORD        PTSUNNY   58  49  74 SW7       29.86R
MERRILL        SUNNY     60  51  71 W5        29.86R
$$

WIZ029-030-035-036-043>047-031400-
CENTRAL WISCONSIN

CITY           SKY/WX    TMP DP  RH WIND       PRES   REMARKS
WAUSAU         MOSUNNY   61  50  67 SW12      29.84S
MOSINEE        MOSUNNY   59  52  77 S10       29.87S
MARSHFIELD     CLOUDY    60  50  69 S8        29.86R
STEVENS POINT  MOSUNNY   59  48  67 S12       29.87R
WAUPACA        MOSUNNY   62  51  66 S7        29.88S
WAUTOMA        MOSUNNY   61  50  67 S5        29.89R
WISC RAPIDS    PTSUNNY   61  48  62 SW8       29.87S
CAMP DOUGLAS   PTSUNNY   63  50  63 S10       29.84R
$$

WIZ011>013-019>022-031-037>040-048>050-031400-
NORTHEAST WISCONSIN

CITY           SKY/WX    TMP DP  RH WIND       PRES   REMARKS
ANTIGO         SUNNY     59  49  69 SW9       29.86S
SHAWANO        SUNNY     62  49  62 SW6       29.87S
OCONTO         SUNNY     63  49  61 S6        29.86F
STURGEON BAY   MOSUNNY   63  48  59 S8        29.91S
GREEN BAY      SUNNY     63  51  65 S9        29.89S
MANITOWOC      MOSUNNY   61  51  70 S7        29.92R
APPLETON       PTSUNNY   63  48  59 SW13      29.89F
CLINTONVILLE   SUNNY     61  48  63 S9        29.87S
OSHKOSH        SUNNY     63  49  60 S13       29.89S
$$

WIZ032>034-041-042-053>061-031400-
SOUTHWEST WISCONSIN

CITY           SKY/WX    TMP DP  RH WIND       PRES   REMARKS
LA CROSSE      CLOUDY    64  51  62 SE3       29.81S
SPARTA         PTSUNNY   63  48  58 S6        29.85S
VIROQUA        CLOUDY    61  49  64 S13G20    29.84S
BOSCOBEL       CLOUDY    64  49  57 VRB3      29.85F
PRAIRIE DU CHI CLOUDY    62  48  60 E8        29.84S
PLATTEVILLE    CLOUDY    61  50  66 SE13      29.88S
$$

WIZ056-057-062-063-064-067-068-031400-
SOUTH CENTRAL WISCONSIN

CITY           SKY/WX    TMP DP  RH WIND       PRES   REMARKS
REEDSBURG      PTSUNNY   62  50  65 S8        29.87S
BARABOO/DELLS  NOT AVBL
LONE ROCK      PTSUNNY   64  51  62 E5        29.87F
MINERAL POINT  CLOUDY    61  50  67 S10       29.88F
MADISON        CLOUDY    62  47  57 S10       29.90F
MIDDLETON      PTSUNNY   61  48  62 S9G17     29.90S
WATERTOWN      MOSUNNY   63  48  58 S7        29.92R
MONROE         CLOUDY    57  48  72 S12       29.92R
JANESVILLE     MOSUNNY   64  46  52 S9        29.92F
$$

WIZ051-052-058>065-066-070>072-031400-
SOUTHEAST WISCONSIN

CITY           SKY/WX    TMP DP  RH WIND       PRES   REMARKS
MILWAUKEE      PTSUNNY   63  43  48 S10       29.94S
WAUKESHA       MOSUNNY   61  43  51 S10       29.95S
MILWAUKEE/TIMM MOSUNNY   61  43  51 CALM      29.95S
RACINE         PTSUNNY   62  43  49 S7        29.97S
BURLINGTON     PTSUNNY   62  44  51 S6        29.94S
KENOSHA        CLOUDY    65  45  48 S10       29.95F
FOND DU LAC    SUNNY     66  46  48 SW13G22   29.90F
SHEBOYGAN      MOSUNNY   61  49  64 S9        29.92S
WEST BEND      SUNNY     61  46  59 S7        29.92F
JUNEAU         MOSUNNY   62  48  60 S12       29.93S
$$

LSZ147-162-031400-
LAKE SUPERIOR

STATION/POSITION TIME  TEMP    WIND        PRES    WAVE
                       AIR SEA DIR/SP/G            HT/PER
                 (UTC) (F)     (DEG/KT/KT) (MB)    (FT/S)
W MID LAKE BUOY  1250   40 35  170/  4/  6 1007.5R   1/ 3
DEVILS ISLAND    1300   50     340/  4/  5 1007.4R
PORT WING        1220   50     280/  9/ 16 1006.4S
SAXON HARBOR     1200   63     190/  8/ 19 1006.8F
$$

LMZ867-665-643>646-031400-
LAKE MICHIGAN

STATION/POSITION TIME  TEMP    WIND        PRES    WAVE
                       AIR SEA DIR/SP/G            HT/PER
                 (UTC) (F)     (DEG/KT/KT) (MB)    (FT/S)
CHAMBERS ISLAND  1200   57     170/  5/ 11 1011.9R
NORTHPORT PIER   1200   53     150/  3/  5 1011.9R
SISTER BAY       1202   64     230/ 13/ 16   N/A
KEWAUNEE LAKESHO 1212   49     190/  4/  7 1011.8R
SHEBOYGAN LAKESH 1300   58     190/ 10/ 11 1013.5F
PORT WASHINGTON  1200   52     160/  3/  7 1014.2
ATWATER BUOY     1200   50     130/  4/  4 1015.2R
MILWAUKEE LAKESH 1200   58     140/  7/  9   N/A
KENOSHA   LAKESH 1300   52     180/ 10/ 16 1014.2F
$$

TC  - TEMPERATURE IN CELSIUS
VSB - VISIBILITY IN STATUTE MILES
WCI - WIND CHILL INDEX
HX  - HEAT INDEX



USA.gov is the U.S. government's official web portal to all federal, state and local government web resources and services.